"TOA5","AWS1","CR1000","7964","CR1000.Std.14","CPU:AWS1_114.CR1","64363","TBL110"
"TIMESTAMP","RECORD","Wind_spd_WVc(1)","Wind_spd_WVc(2)","Air_Temp_Avg","Humidity_Avg","SW_upper_Wm2_Avg","Rain_Tot","Press_Avg","Issui_Tot","Depth_cm","SR50A_Raw","Quality","Ground_Temp_Avg(1)","Ground_Temp_Avg(2)","SW_lower_Wm2_Avg","Albedo_Avg","SWC_per(1)","SWC_per(2)","Period(1)","Period(2)"
"TS","RN","","","","","","","","","","","","","","","","","","",""
"","","WVc","WVc","Avg","Avg","Avg","Tot","Avg","Tot","Smp","Smp","Smp","Avg","Avg","Avg","Avg","Smp","Smp","Smp","Smp"
"2017-09-28 00:00:00",307645,0.367,104.9,11.87,98.6,0,1,859.4514,0,1.389,3.099,204,15.65,16.27,0.1818981,0,53.05,59.67,34.04,35.6
"2017-09-28 00:10:00",307646,0.761,132.1,12.23,100,0.2358172,0,859.0048,0,0.751,3.101,241,15.62,16.28,0.5873794,0.836,53,59.91,34.03,35.66
"2017-09-28 00:20:00",307647,0.644,121.6,13.3,97.4,0.424471,0,858.6994,0,-0.019,3.105,200,15.54,16.27,1.030756,1.379,53,59.97,34.03,35.67
"2017-09-28 00:30:00",307648,0.573,145.5,13.55,93.1,0.165072,0.5,858.5667,0,1.12,3.092,206,15.56,16.27,0.932228,1.109,52.94,60.03,34.02,35.69
"2017-09-28 00:40:00",307649,0.597,291.5,13.64,92.2,0,0,858.5836,0,0.758,3.096,208,15.55,16.27,0.6745389,0,52.83,59.97,33.99,35.67
"2017-09-28 00:50:00",307650,0.709,114.1,13.46,93.6,0.003930287,0.5,858.4404,0,0.438,3.101,205,15.49,16.27,0.2955845,0.032,52.77,59.97,33.98,35.67
"2017-09-28 01:00:00",307651,0.506,130.2,13.3,96.2,0,1,858.2509,0,0.95,3.096,209,15.53,16.25,0.1326341,0,52.77,59.97,33.98,35.67
"2017-09-28 01:10:00",307652,0.617,345.7,13.33,98.2,0.1257692,1,858.137,0,0.445,3.1,213,15.46,16.23,0.2690577,0.249,52.88,59.97,34,35.67
"2017-09-28 01:20:00",307653,0.364,45.12,13.68,100,0.4323316,0,858.1118,0,-0.93,3.112,200,15.42,16.22,0.4471663,0.948,53,60.09,34.03,35.7
"2017-09-28 01:30:00",307654,0.54,17.73,13.71,100,0.08253602,0,857.9265,0,-1.134,3.114,202,15.39,16.2,0.2880054,0.297,53,60.21,34.03,35.73
"2017-09-28 01:40:00",307655,0.451,175.2,13.96,100,0.3380047,0.5,857.7612,0,-0.049,3.102,207,15.39,16.2,0.4054813,0.82,52.94,60.27,34.02,35.74
"2017-09-28 01:50:00",307656,0.663,80.1,14.08,100,0.08253602,0.5,857.7821,0,0.724,3.094,241,15.36,16.21,0.3448485,0.434,52.94,60.27,34.02,35.74
"2017-09-28 02:00:00",307657,0.503,36.29,14.14,100,0.003930287,0.5,857.7017,0,0.905,3.092,275,15.36,16.22,0.1288445,0.016,52.94,60.27,34.02,35.74
"2017-09-28 02:10:00",307658,0.432,18.47,14.21,100,0.01179086,0.5,857.489,0,0.115,3.099,235,15.36,16.22,0.2349517,0.096,52.94,60.33,34.02,35.75
"2017-09-28 02:20:00",307659,0.481,13.79,14.48,100,0.2711898,0.5,857.3577,0,0.333,3.095,208,15.36,16.22,0.4395871,0.964,53,60.44,34.03,35.78
"2017-09-28 02:30:00",307660,0.378,95.8,14.46,100,0,0.5,857.2568,0,0.935,3.091,253,15.3,16.21,0.04168499,0,53,60.5,34.03,35.79
"2017-09-28 02:40:00",307661,0.631,103.7,14.28,100,0,0.5,857.1185,0,-0.524,3.105,206,15.31,16.23,0.03031636,0,53.05,60.56,34.04,35.81
"2017-09-28 02:50:00",307662,0.602,70.34,14.28,100,0,0,857.0184,0,-0.602,3.106,224,15.32,16.21,0.02273724,0,53.05,60.62,34.04,35.82
"2017-09-28 03:00:00",307663,0.497,70.93,14.36,100,0.1375583,0,856.8595,0,0.691,3.092,210,15.32,16.17,0.1932642,0.595,53,60.74,34.03,35.85
"2017-09-28 03:10:00",307664,0.385,104.6,14.75,100,0.4362584,0.5,856.7388,0,-1.342,3.109,193,15.33,16.15,0.5419007,1.216,53,60.74,34.03,35.85
"2017-09-28 03:20:00",307665,0.286,115.8,15.12,100,0.436255,0,856.6941,0,-1.945,3.113,197,15.31,16.13,0.4547382,1.053,52.94,60.8,34.02,35.86
"2017-09-28 03:30:00",307666,0.766,138.3,15.55,100,0.1925819,0,856.3454,0,0.083,3.09,207,15.31,16.12,0.5532681,0.844,53,60.8,34.03,35.86
"2017-09-28 03:40:00",307667,0.646,156.6,16.1,98.4,0.04323299,0,856.2302,0,1.483,3.075,217,15.32,16.08,0.7389578,0.707,52.88,60.74,34,35.85
"2017-09-28 03:50:00",307668,0.582,131,16.26,95.6,0.03930241,0,856.2092,0,0.666,3.083,204,15.3,16.06,0.4774751,0.482,52.88,60.74,34,35.85
"2017-09-28 04:00:00",307669,0.602,328.9,16.19,95.4,0,0,856.1885,0,0.621,3.084,247,15.27,16.04,0.450919,0,52.83,60.68,33.99,35.83
"2017-09-28 04:10:00",307670,0.391,344.1,15.06,94.4,0.02357901,1.5,856.2348,0,-0.167,3.101,207,15.28,16.06,0.03410199,0.048,52.77,60.62,33.98,35.82
"2017-09-28 04:20:00",307671,0.511,128.5,14.4,99.8,0,0.5,856.0865,0,-0.76,3.107,212,15.3,16.08,0,0,52.83,60.62,33.99,35.82
"2017-09-28 04:30:00",307672,0.643,119.8,14.72,100,0.2672314,1,855.8248,0,-2.87,3.124,207,15.29,16.04,0.3713374,0.787,52.94,60.62,34.02,35.82
"2017-09-28 04:40:00",307673,0.662,133.3,15.4,100,0.5541264,0,855.6965,0,-2.635,3.117,197,15.3,16.04,0.7805837,1.445,53.05,60.74,34.04,35.85
"2017-09-28 04:50:00",307674,0.524,98.1,16.19,100,0.5384051,0,855.6934,0,1.446,3.075,207,15.28,16.04,0.6517481,1.224,53,60.86,34.03,35.88
"2017-09-28 05:00:00",307675,0.599,42.6,16.46,100,0.306533,0,855.6967,0,1.516,3.073,223,15.26,16.03,0.2425079,0.651,53.05,60.92,34.04,35.89
"2017-09-28 05:10:00",307676,0.703,78.34,16.7,100,0.153261,0,855.642,0,1.426,3.073,213,15.24,16.02,0.1060932,0.329,53,60.86,34.03,35.88
"2017-09-28 05:20:00",307677,0.748,52.6,16.78,100,0.04322506,0,855.4382,0,-3.663,3.122,205,15.23,16.01,0.03031064,0.08,52.94,60.92,34.02,35.89
"2017-09-28 05:30:00",307678,0.684,52.62,16.79,100,0.05501302,0.5,855.3409,0,-0.825,3.094,208,15.22,15.99,0.04925419,0.193,52.88,60.92,34,35.89
"2017-09-28 05:40:00",307679,0.418,44.43,16.96,100,0.1689679,1,855.5514,0,-1.617,3.101,214,15.22,15.95,0.09471932,0.354,52.94,60.86,34.02,35.88
"2017-09-28 05:50:00",307680,0.46,42.34,16.95,100,0.1453896,2.5,855.5261,0,1.366,3.073,273,15.22,15.92,0.03030996,0.096,53.11,60.92,34.06,35.89
"2017-09-28 06:00:00",307681,0.715,99.2,16.77,100,0.8487305,2,855.1893,0,0.88,3.078,201,15.21,15.91,0.06061698,0.04,53.78,61.46,34.22,36.01
"2017-09-28 06:10:00",307682,0.774,98.7,16.97,100,1.838866,0.5,854.9724,0,0.201,3.083,205,15.2,15.9,0.394003,0.213,53.9,64.85,34.25,36.77
"2017-09-28 06:20:00",307683,0.767,66.62,17.16,100,2.561828,0,854.7913,0,-0.543,3.09,238,15.2,15.91,0.2879248,0.113,53.9,65.09,34.25,36.82
"2017-09-28 06:30:00",307684,0.404,38.35,16.94,99.9,1.115867,1.5,854.8209,0,-0.18,3.093,209,15.19,15.92,0.09849868,0.054,53.61,65.16,34.18,36.84
"2017-09-28 06:40:00",307685,0.434,48.13,14.54,98.5,0.569711,3,855.3198,0,-0.417,3.107,189,15.19,15.92,0,0,54.18,65.22,34.32,36.85
"2017-09-28 06:50:00",307686,0.391,58.69,13.56,100,1.512741,1.5,855.5998,0,0.893,3.096,234,15.2,15.87,0,0,54.41,65.22,34.37,36.85
"2017-09-28 07:00:00",307687,0.131,177.4,13.43,100,5.198709,1,855.6462,0,-0.501,3.109,219,15.23,15.86,0.4584452,0.087,54.52,65.22,34.4,36.85
"2017-09-28 07:10:00",307688,0.027,188.9,13.64,100,8.016785,1,856.0763,0,0.212,3.101,213,15.25,15.87,1.117776,0.14,54.63,65.22,34.42,36.85
"2017-09-28 07:20:00",307689,0.143,174.1,13.84,100,14.21495,1,856.1174,0,-0.562,3.108,193,15.34,15.87,1.63319,0.115,54.58,65.22,34.41,36.85
"2017-09-28 07:30:00",307690,0.506,33.08,14.19,100,30.09347,0.5,855.9807,0,-0.287,3.102,193,15.36,15.88,3.645452,0.121,54.52,65.22,34.4,36.85
"2017-09-28 07:40:00",307691,0.412,27.48,14.49,100,17.27345,2,856.002,0,-0.155,3.1,209,15.36,15.88,1.917492,0.111,54.46,65.22,34.38,36.85
"2017-09-28 07:50:00",307692,0.584,32.61,14.59,100,24.21836,2,856.0233,0,-0.077,3.099,218,15.36,15.89,2.698148,0.112,54.8,65.22,34.46,36.85
"2017-09-28 08:00:00",307693,0.37,15.03,14.74,100,17.38757,1.5,856.0521,0,0.909,3.088,216,15.36,15.9,2.065299,0.119,54.86,65.22,34.48,36.85
"2017-09-28 08:10:00",307694,0.507,0.679,15.01,100,33.65502,1.5,856.2077,0,0.299,3.093,217,15.36,15.87,4.013124,0.119,54.92,65.28,34.49,36.87
"2017-09-28 08:20:00",307695,0.425,26.6,15.16,98.3,46.01942,1,856.2269,0,1.13,3.084,229,15.36,15.84,5.290169,0.115,54.97,65.22,34.51,36.85
"2017-09-28 08:30:00",307696,0.123,331,15.25,96.8,60.79682,0.5,856.2186,0,4.94,3.046,408,15.35,15.84,6.889302,0.113,55.03,65.28,34.52,36.87
"2017-09-28 08:40:00",307697,0.11,114.8,15.35,99.5,72.01021,0.5,856.2167,0,1.239,3.082,230,15.34,15.84,8.01483,0.111,54.92,65.22,34.49,36.85
"2017-09-28 08:50:00",307698,0.112,49.87,15.48,100,50.88135,0,856.2379,0,1.373,3.08,234,15.36,15.84,5.377348,0.106,54.63,65.28,34.42,36.87
"2017-09-28 09:00:00",307699,0.057,73.05,15.54,100,60.29768,0,856.2772,0,1.715,3.076,242,15.36,15.84,6.445932,0.107,54.46,65.22,34.38,36.85
"2017-09-28 09:10:00",307700,0.108,30,15.59,100,80.67147,0,856.2162,0,0.302,3.09,234,15.35,15.83,8.943148,0.111,54.35,65.22,34.36,36.85
"2017-09-28 09:20:00",307701,0.058,318.8,15.44,100,81.97322,0.5,856.1998,0,2.277,3.072,288,15.33,15.82,8.692715,0.106,54.29,65.22,34.34,36.85
"2017-09-28 09:30:00",307702,0.223,319.2,15.28,100,104.271,0,856.1982,0,-0.867,3.104,200,15.29,15.79,11.32994,0.109,54.18,65.22,34.32,36.85
"2017-09-28 09:40:00",307703,0.08,267.3,15.14,100,88.02818,0.5,856.1957,0,-0.759,3.102,202,15.29,15.77,8.89342,0.1,54.12,65.22,34.3,36.85
"2017-09-28 09:50:00",307704,0.033,280.9,15.11,100,62.26273,1,856.202,0,3.395,3.063,237,15.32,15.79,5.808922,0.093,54.12,65.16,34.3,36.84
"2017-09-28 10:00:00",307705,0.292,303.1,14.69,100,73.22493,0.5,856.2015,0,1.94,3.08,277,15.33,15.77,7.487309,0.102,54.12,65.22,34.3,36.85
"2017-09-28 10:10:00",307706,0.289,295.3,14.47,100,79.27611,0,856.1749,0,4.496,3.056,362,15.33,15.77,8.38146,0.106,54.07,65.22,34.29,36.85
"2017-09-28 10:20:00",307707,0.486,318.6,14.09,100,118.6731,0.5,855.9562,0,6.12,3.042,326,15.33,15.77,12.95495,0.109,54.07,65.22,34.29,36.85
"2017-09-28 10:30:00",307708,0.384,245.3,13.97,100,105.309,0.5,855.9524,0,4.168,3.061,241,15.34,15.77,11.54555,0.11,54.07,65.22,34.29,36.85
"2017-09-28 10:40:00",307709,0.581,267.3,13.95,100,86.35766,0,855.9832,0,1.671,3.086,236,15.36,15.78,9.079064,0.104,54.01,65.22,34.27,36.85
"2017-09-28 10:50:00",307710,0.328,277.7,13.76,100,48.93833,0,856.1985,0,-0.595,3.109,208,15.43,15.78,4.816353,0.098,53.95,65.16,34.26,36.84
"2017-09-28 11:00:00",307711,0.255,300.2,13.52,100,71.36138,0,856.2043,0,-1.241,3.116,190,15.52,15.76,7.533526,0.105,53.9,65.03,34.25,36.81
"2017-09-28 11:10:00",307712,0.305,276.4,13.4,100,69.9077,0.5,856.2225,0,-35.25,3.45,234,15.52,15.73,7.203892,0.102,53.84,64.54,34.23,36.7
"2017-09-28 11:20:00",307713,0.607,293.8,12.88,100,50.10322,0,856.3935,0,-1.319,3.121,190,15.52,15.72,4.964295,0.099,53.78,64.36,34.22,36.66
"2017-09-28 11:30:00",307714,0.247,273.5,12.65,100,103.221,0.5,856.4391,0,2.869,3.081,240,15.49,15.72,11.44062,0.11,53.67,64.18,34.19,36.62
"2017-09-28 11:40:00",307715,0.337,316.3,12.54,100,86.74529,0.5,856.5139,0,4.035,3.071,255,15.5,15.73,9.026687,0.104,53.67,63.99,34.19,36.58
"2017-09-28 11:50:00",307716,0.293,285.1,12.41,100,118.8203,0.5,856.5039,0,0.409,3.106,235,15.54,15.74,13.19897,0.111,53.61,63.93,34.18,36.57
"2017-09-28 12:00:00",307717,0.332,330.9,12.33,100,88.32919,0,856.4859,0,-1.641,3.127,184,15.54,15.73,9.223742,0.104,53.61,63.87,34.18,36.55
"2017-09-28 12:10:00",307718,0.232,321.6,12.17,100,65.73792,0,856.5361,0,0.698,3.106,211,15.54,15.77,7.071283,0.107,53.56,63.75,34.17,36.53
"2017-09-28 12:20:00",307719,0.651,267.4,11.77,100,167.662,0,856.1777,0,0.873,3.105,213,15.54,15.77,19.97467,0.119,53.5,63.69,34.15,36.51
"2017-09-28 12:30:00",307720,0.349,285.4,11.9,100,144.5244,0,856.235,0,1.107,3.102,207,15.53,15.76,16.93167,0.117,53.5,63.63,34.15,36.5
"2017-09-28 12:40:00",307721,0.316,292.2,11.88,100,101.7865,0,856.2858,0,0.434,3.11,203,15.52,15.76,11.73621,0.115,53.45,63.39,34.14,36.44
"2017-09-28 12:50:00",307722,0.476,291.4,11.54,100,66.94059,0.5,856.4963,0,-0.062,3.117,199,15.56,15.79,7.150864,0.107,53.39,63.26,34.13,36.42
"2017-09-28 13:00:00",307723,0.834,322.9,10.86,100,82.31192,0,856.5384,0,-0.791,3.127,209,15.56,15.8,9.273006,0.112,53.33,63.2,34.11,36.4
"2017-09-28 13:10:00",307724,0.235,253.1,10.95,100,118.8007,0,856.6163,0,0.87,3.11,246,15.58,15.8,13.92656,0.117,53.22,63.2,34.08,36.4
"2017-09-28 13:20:00",307725,0.563,295.3,10.69,100,134.6279,0.5,856.7322,0,-0.077,3.12,221,15.58,15.8,15.2908,0.114,53.22,63.14,34.08,36.39
"2017-09-28 13:30:00",307726,0.441,270,10.65,100,90.95462,0,856.8102,0,1.141,3.109,235,15.59,15.8,9.924808,0.109,53.22,63.08,34.08,36.38
"2017-09-28 13:40:00",307727,0.745,314.1,10.38,100,101.252,0.5,856.8607,0,-2.099,3.142,203,15.63,15.79,11.70968,0.115,53.16,63.02,34.07,36.36
"2017-09-28 13:50:00",307728,0.25,48.72,10.41,100,118.1718,0,856.9197,0,-1.794,3.139,194,15.66,15.79,13.7674,0.116,53.11,63.02,34.06,36.36
"2017-09-28 14:00:00",307729,0.646,308,10.19,100,146.5013,0.5,857.0902,0,1.102,3.112,201,15.67,15.8,17.3182,0.118,53.11,62.96,34.06,36.35
"2017-09-28 14:10:00",307730,0.348,291,9.97,100,122.8332,0,857.2714,0,4.355,3.081,232,15.67,15.8,14.21078,0.116,53.11,62.96,34.06,36.35
"2017-09-28 14:20:00",307731,0.883,323,9.82,100,89.22923,0.5,857.3452,0,5.439,3.072,346,15.67,15.79,10.03849,0.112,53.11,62.9,34.06,36.34
"2017-09-28 14:30:00",307732,0.36,357.9,9.63,100,69.07866,0,857.4947,0,-35.28,3.473,202,15.67,15.77,7.897403,0.114,53.11,62.9,34.06,36.34
"2017-09-28 14:40:00",307733,0.62,302.3,9.42,100,75.90163,0,857.4715,0,0.493,3.123,240,15.67,15.76,8.708364,0.115,53.11,62.84,34.06,36.32
"2017-09-28 14:50:00",307734,0.883,313.5,8.9,100,67.21571,0.5,857.7053,0,-2.892,3.158,189,15.67,15.75,7.476764,0.111,53.05,62.9,34.04,36.34
"2017-09-28 15:00:00",307735,0.694,313.6,8.72,100,67.24322,0,857.798,0,-0.944,3.141,205,15.67,15.76,8.026248,0.119,53.05,62.9,34.04,36.34
"2017-09-28 15:10:00",307736,0.75,267.3,8.29,100,40.26183,0,857.8759,0,0.193,3.131,236,15.67,15.75,4.407236,0.11,53.11,62.9,34.06,36.34
"2017-09-28 15:20:00",307737,0.374,323.1,8.18,100,30.2047,0,858.0507,0,-0.248,3.136,225,15.67,15.76,3.687283,0.122,53.05,62.84,34.04,36.32
"2017-09-28 15:30:00",307738,0.534,16.61,7.886,100,50.48043,0.5,858.2129,0,1.001,3.126,242,15.7,15.77,6.044774,0.12,53.05,62.84,34.04,36.32
"2017-09-28 15:40:00",307739,0.703,304.9,7.6,100,36.062,0,858.3077,0,0.883,3.128,201,15.74,15.8,4.233574,0.117,53,62.84,34.03,36.32
"2017-09-28 15:50:00",307740,0.728,286.2,7.552,100,38.97432,0,858.3456,0,-31.57,3.449,312,15.76,15.82,4.920019,0.127,53,62.84,34.03,36.32
"2017-09-28 16:00:00",307741,0.377,220.7,7.463,100,38.77602,0,858.5519,0,2.459,3.113,209,15.7,15.84,5.098464,0.132,52.94,62.84,34.02,36.32
"2017-09-28 16:10:00",307742,0.394,187.8,7.608,99.8,44.38742,0,858.4783,0,2.335,3.113,208,15.67,15.84,5.826431,0.131,52.77,61.1,33.98,35.93
"2017-09-28 16:20:00",307743,1.216,176.1,7.508,100,29.39663,0,858.3372,0,2.124,3.117,200,15.67,15.85,3.931079,0.134,52.77,61.04,33.98,35.92
"2017-09-28 16:30:00",307744,1.873,180.2,7.36,100,35.20768,0,858.3309,0,2.809,3.11,207,15.67,15.85,4.992526,0.142,52.72,60.98,33.96,35.9
"2017-09-28 16:40:00",307745,1.5,180.2,7.569,100,41.21917,0,858.514,0,2.233,3.114,200,15.67,15.85,5.921286,0.144,52.66,60.92,33.95,35.89
"2017-09-28 16:50:00",307746,1.354,181.7,7.929,100,59.45406,0,858.6257,0,2.196,3.111,200,15.67,15.85,8.681015,0.146,52.66,60.86,33.95,35.88
"2017-09-28 17:00:00",307747,1.42,181.7,8.57,95.6,43.82584,0,858.6973,0,1.726,3.113,200,15.68,15.85,6.850041,0.156,52.6,60.86,33.94,35.88
"2017-09-28 17:10:00",307748,1.014,173.7,8.96,90.8,33.7884,0,858.5372,0,2.393,3.105,210,15.67,15.87,5.545993,0.165,52.55,60.8,33.92,35.86
"2017-09-28 17:20:00",307749,1.502,188.2,9.16,86.2,16.21796,0,858.5562,0,2.422,3.104,200,15.67,15.91,3.703647,0.239,52.55,60.74,33.92,35.85
"2017-09-28 17:30:00",307750,1.054,184.3,9.23,85.3,10.53283,0,858.5457,0,-30.78,3.429,200,15.68,15.92,3.35489,0.318,52.49,60.68,33.91,35.83
"2017-09-28 17:40:00",307751,0.68,221.3,9.26,85.8,5.889577,0,858.4467,0,3.696,3.091,222,15.69,15.93,2.63084,0.497,52.38,60.62,33.88,35.82
"2017-09-28 17:50:00",307752,0.785,211.5,9.75,81.1,2.390429,0,858.3224,0,-30.31,3.422,199,15.71,15.95,3.26391,1.489,52.38,60.56,33.88,35.81
"2017-09-28 18:00:00",307753,0.808,170.6,9.73,81,0.6290603,0,858.3245,0,-30.34,3.421,198,15.68,15.95,2.801428,2.417,52.32,60.56,33.87,35.81
"2017-09-28 18:10:00",307754,0.848,298.7,9.38,84.3,0.3184618,0,858.5035,0,1.636,3.117,208,15.63,15.97,1.789275,1.387,52.32,60.56,33.87,35.81
"2017-09-28 18:20:00",307755,0.356,357.3,7.667,94,0,0,858.8132,0,2.354,3.114,210,15.64,15.95,0.07202589,0,52.32,60.5,33.87,35.79
"2017-09-28 18:30:00",307756,0.571,120.2,7.693,99.9,0,0,858.8132,0,-32.5,3.456,355,15.59,15.94,0.579998,0,52.27,60.44,33.85,35.78
"2017-09-28 18:40:00",307757,0.378,24.97,8.72,96.9,0,0,858.8174,0,1.793,3.109,203,15.59,15.93,2.460253,0,52.21,60.38,33.84,35.77
"2017-09-28 18:50:00",307758,0.804,92.3,9.2,88.9,0,0,858.8132,0,-33.01,3.452,234,15.6,15.96,1.952281,0,52.21,60.38,33.84,35.77
"2017-09-28 19:00:00",307759,0.38,99.7,9.99,79.07,0.4285415,0,858.8216,0,-31.28,3.425,202,15.61,15.99,3.104657,2.432,52.16,60.33,33.83,35.75
"2017-09-28 19:10:00",307760,0.475,307.3,9.89,82.4,0.4324737,0,859.1481,0,1.901,3.112,204,15.57,16.01,1.990167,1.005,52.16,60.27,33.83,35.74
"2017-09-28 19:20:00",307761,0.2,138.9,8.42,93.6,0,0,859.2555,0,2.371,3.11,216,15.51,16,0.4548985,0,52.16,60.03,33.83,35.69
"2017-09-28 19:30:00",307762,0.117,187.4,8.17,97.2,0,0,859.3187,0,2.144,3.112,214,15.5,15.97,0.7847023,0,52.1,59.91,33.81,35.66
"2017-09-28 19:40:00",307763,0.201,295.9,8.29,97.9,0,0,859.4534,0,2.066,3.113,218,15.51,15.93,1.353328,0,52.16,59.85,33.83,35.64
"2017-09-28 19:50:00",307764,0.005,137.8,8.01,97.6,0,0,859.702,0,2.082,3.115,208,15.54,15.91,0.9704541,0,52.05,59.85,33.8,35.64
"2017-09-28 20:00:00",307765,0.174,135.8,7.657,99.2,0,0,859.8242,0,1.71,3.117,200,15.51,15.87,1.118297,0,52.05,59.85,33.8,35.64
"2017-09-28 20:10:00",307766,0.7,50.13,8.56,100,0,0,859.8305,0,1.039,3.12,216,15.43,15.88,2.043261,0,52.05,59.85,33.8,35.64
"2017-09-28 20:20:00",307767,0.841,43.67,8.78,96.6,0,0,859.9084,0,0.942,3.12,237,15.41,15.9,1.182741,0,52.05,59.73,33.8,35.62
"2017-09-28 20:30:00",307768,0.4,340.5,9.29,84,0,0,860.0264,0,1.284,3.114,226,15.44,15.91,2.608096,0,52.05,59.79,33.8,35.63
"2017-09-28 20:40:00",307769,0.36,239.6,9.22,82.7,0,0,859.9127,0,1.357,3.114,234,15.46,15.9,2.865872,0,51.99,59.73,33.79,35.62
"2017-09-28 20:50:00",307770,0.373,346.2,9.35,80.6,0,0,860.0453,0,1.744,3.109,233,15.35,15.9,3.013715,0,51.99,59.67,33.79,35.6
"2017-09-28 21:00:00",307771,0.446,54.12,9.09,82.4,0,0,859.9948,0,1.002,3.123,218,15.33,15.88,2.255548,0,51.94,59.67,33.77,35.6
"2017-09-28 21:10:00",307772,0.195,29.28,8.31,88.7,0,0,859.8242,0,3.482,3.095,272,15.34,15.86,1.637641,0,51.99,59.67,33.79,35.6
"2017-09-28 21:20:00",307773,0.513,314.1,8.8,84.3,0,0,860.066,0,2.549,3.108,246,15.39,15.85,2.255548,0,51.99,59.61,33.79,35.59
"2017-09-28 21:30:00",307774,0.177,191.3,7.597,91.2,0,0,860.191,0,0.6,3.133,215,15.35,15.85,0.8529382,0,51.94,59.61,33.77,35.59
"2017-09-28 21:40:00",307775,0.105,149.3,7.059,94.2,0,0,859.9457,0,0.845,3.133,227,15.27,15.86,0.8756832,0,51.88,59.61,33.76,35.59
"2017-09-28 21:50:00",307776,0.563,25.31,7.234,92,0,0,859.9594,0,0.946,3.125,228,15.29,15.92,2.285874,0,51.88,59.56,33.76,35.58
"2017-09-28 22:00:00",307777,0.185,326.1,7.726,86,0,0,860.3585,0,1.058,3.128,206,15.3,15.92,2.338946,0,51.88,59.56,33.76,35.58
"2017-09-28 22:10:00",307778,0.09,135.7,6.895,92.1,0,0,860.3704,0,0.637,3.137,211,15.16,15.93,1.281303,0,51.82,59.56,33.75,35.58
"2017-09-28 22:20:00",307779,0.684,41.53,6.809,87.7,0,0,860.395,0,-30.82,3.441,189,15.21,15.93,2.301038,0,51.88,59.5,33.76,35.56
"2017-09-28 22:30:00",307780,0.744,29.5,7.779,80.7,0,0,860.4396,0,-32.79,3.457,198,15.23,15.93,3.407962,0,51.82,59.44,33.75,35.55
"2017-09-28 22:40:00",307781,0.482,55.92,7.89,81.1,0,0,860.6545,0,2.938,3.108,245,15.15,15.93,2.972016,0,51.82,59.44,33.75,35.55
"2017-09-28 22:50:00",307782,0.501,24.41,8.22,79.16,0,0,860.6871,0,3.279,3.097,272,15.07,15.93,3.855281,0,51.82,59.44,33.75,35.55
"2017-09-28 23:00:00",307783,0.509,23.92,8.51,77.76,0,0,860.8443,0,1.969,3.113,212,15.12,15.93,3.510314,0,51.77,59.44,33.73,35.55
"2017-09-28 23:10:00",307784,0.44,26.43,8.17,78.92,0,0,860.7477,0,2.687,3.11,233,15.11,15.93,3.116067,0,51.82,59.44,33.75,35.55
"2017-09-28 23:20:00",307785,0.39,22.88,7.669,79.65,0,0,860.9247,0,-29.55,3.428,216,15.01,15.92,2.846918,0,51.77,59.44,33.73,35.55
"2017-09-28 23:30:00",307786,0.1,126.8,6.681,87.8,0,0,861.108,0,-29.24,3.435,196,15,15.88,1.243394,0,51.77,59.44,33.73,35.55
"2017-09-28 23:40:00",307787,0.329,163.4,5.726,92.9,0,0,861.1733,0,-29.48,3.44,194,15.06,15.85,0.8832648,0,51.77,59.44,33.73,35.55
"2017-09-28 23:50:00",307788,0.526,188.7,5.618,94.1,0,0,861.2217,0,-31.93,3.46,194,14.99,15.86,1.686922,0,51.71,59.38,33.72,35.54
